STARLINK-32866, 62858

Orbit data source: Space-Track

STARLINK-32866, 62858 is a payload satellite owned by SpaceX/Seattle (US) in LEO that was launched on Sat, 01 Feb 2025 UTC via an FALCON 9 launch vehicle from the Air Force Western Test Range (AFWTR). Payload-class satellites include a variety of spacecraft equipped with specific instruments for various scientific and technological missions. These include communications satellites like Starlink; space stations such as the ISS; scientific satellites like the Hubble; Earth observation satellites from companies like Planet Labs, Umbra, and HawkEye 360; GPS; miniature CubeSats for education and research; and military/defense satellites.

Loading next visibility...
Identifier
62858, 2025-022E
Orbit
LEO
Country
Flag of USUS
Related business
Manufacturer
SpaceX/Seattle
Mission
Operational spacecraft
Bus & Motor
STARLINK V2M, Unknown motor
Mass
730 kg wet, ~700 kg dry
Launch date (UTC)
2025-02-01 (9 months ago)
Launch vehicle
FALCON 9
Launch site
Air Force Western Test Range (AFWTR)
Object type
Payload
Rocket body
Debris
Shape & HBR
Unknown shape, 17.7 m
Radar Cross Section
Large (>1 m²)

Expand to show TLE details & history
Last TLE update: 12 hours ago

TLE from 12 hours ago
0 STARLINK-32866
1 62858U 25022E   25304.56094950  .00030613  00000-0  10422-2 0  9996
2 62858  53.1603   9.1385 0000987  99.2033 260.9079 15.30176615 42133
Epoch: 2025-10-31T13:27Z
TLE epoch observation values (Epoch: 2025-10-31T13:27:46.036Z)
Latitude
-0.00007°
Longitude
127.09301°
Altitude
476.292 km
Speed
7.629 km/s
True Right ascension
00h 36m 33s
True Declination
0° 00' 00"
Sunlit
Object was in full shadow at epoch
Visualization orbit readout
Latitude
Unknown
Longitude
Unknown
Altitude
Unknown
Speed
Unknown
Apparent Right ascension
Unknown
Apparent Declination
Unknown
Sunlit
N/A
Visualization observer readout
Local Sidereal Time
21:01:45
Azimuth
Unknown
Elevation
Unknown
Doppler factor
Unknown
Orbital elements
Apogee altitude
476.218 km
Perigee altitude
474.865 km
Semi-major axis
6,853.678 km
Eccentricity
0.0001
Inclination
53.1603°
RAAN
9.1385°
Arg. of periapsis
99.2033°
True anomaly
260.89673°
Mean anomaly
260.9079°
Eccentric anomaly
260.90232°
Mean motion
3.82523 °/min
Orbital period
94.11 mins
BSTAR
0.0010422
Loading maneuver chart data...
Computing Atmospheric mass density...
Loading historical data...
Loading historical data...
Loading historical data...
Loading historical data...
Loading historical data...
Loading historical data...
Loading historical data...

Documentation

Showing up to 5 results
|